Regional Weather Roundup
Issued by NWS Upton, NY

Current Version | Previous Version | Text Only | Print | Product List | Glossary On
Versions: 1 2 3 4 5 6 7 8 9 10 11 12 13 14 15 16 17 18 19 20 21 22 23 24 25 26 27 28 29 30 31 32 33 34 35 36 37 38 39 40 41 42 43 44 45 46 47 48 49 50
000 ASUS41 KOKX 180605 RWROKX REGIONAL WEATHER ROUNDUP NATIONAL WEATHER SERVICE NEW YORK NY 200 AM EDT THU SEP 18 2014 NOTE: "FAIR" INDICATES FEW OR NO CLOUDS BELOW 12,000 FEET WITH NO SIGNIFICANT WEATHER AND/OR OBSTRUCTIONS TO VISIBILITY. NYZ071-072-176-178-NJZ106-104-180700- NEW YORK CITY METRO AREA CITY SKY/WX TMP DP RH WIND PRES REMARKS CENTRAL PARK CLEAR 61 51 70 W5 30.00S LAGUARDIA APRT CLEAR 64 53 67 W5 29.96S KENNEDY INTL CLEAR 62 53 72 W6 29.98S NEWARK/LIBERTY CLEAR 58 51 78 W3 29.97S BRNX BOT. GARD N/A 59 52 77 E2 29.97S TETERBORO CLEAR 57 49 74 CALM 29.96F $$ NYZ177-179-078>081-180700- LONG ISLAND NEW YORK CITY SKY/WX TMP DP RH WIND PRES REMARKS FARMINGDALE CLEAR 57 50 77 CALM 29.97S ISLIP CLEAR 53 49 86 CALM 29.95F SHIRLEY CLEAR 49 46 90 CALM 29.97F WESTHAMPTON CLEAR 44 40 85 CALM 29.98F MONTAUK POINT N/A 52 48 86 CALM 29.97F $$ NYZ052-065-067-180700- HUDSON VALLEY CITY SKY/WX TMP DP RH WIND PRES REMARKS WHITE PLAINS CLEAR 52 50 93 NW3 29.96F NEWBURGH CLEAR 50 48 93 CALM 29.99S MONTGOMERY PTCLDY 44 43 96 CALM 29.97F FOG POUGHKEEPSIE CLEAR 47 44 90 CALM 29.97S ALBANY PTCLDY 48 45 89 CALM 29.98S $$ NJZ001-105-106-008-010-013-015-019>022-104-180700- NEW JERSEY CITY SKY/WX TMP DP RH WIND PRES REMARKS NEWARK/LIBERTY CLEAR 58 51 78 W3 29.97S TETERBORO CLEAR 57 49 74 CALM 29.96F CALDWELL CLEAR 50 45 83 CALM 29.98F MORRISTOWN N/A 46 43 87 CALM 29.98F FOG SOMERVILLE CLEAR 47 45 93 CALM 29.96F LINDEN FAIR 61 55 80 CALM 29.99S SUSSEX PTCLDY 46 43 89 CALM 29.99S ANDOVER N/A 45 44 97 CALM 29.99S TRENTON CLEAR 53 50 89 CALM 29.97S MILLVILLE MOCLDY 52 51 97 CALM 29.97F ATLANTIC CITY PTCLDY 53 51 93 W3 29.97F WRIGHTSTOWN CLEAR 52 51 97 CALM 29.95F TOMS RIVER CLEAR 46 43 87 CALM 29.98S BELMAR CLEAR 54 46 76 W3 29.97S $$ PAZ047>061-062-071-180700- EASTERN PENNSYLVANIA CITY SKY/WX TMP DP RH WIND PRES REMARKS PHILADELPHIA CLEAR 63 53 70 S3 29.98S ALLENTOWN CLEAR 48 45 89 CALM 29.98S SCRANTON CLEAR 48 42 80 E6 29.98F $$ CTZ002-004>006-009-010-012-RIZ004-006-007-MAZ004-011-015-180700- SOUTHERN NEW ENGLAND IN CT CITY SKY/WX TMP DP RH WIND PRES REMARKS BRADLEY INTL CLEAR 50 46 86 CALM 29.96F HARTFORD CLEAR 50 48 93 SE8 29.97S DANBURY CLEAR 46 44 93 SW3 29.99S WTRBRY/OXFORD CLEAR 45 39 81 CALM 29.98F BRIDGEPORT CLEAR 56 49 77 CALM 29.96F MERIDEN CLEAR 45 43 93 CALM 29.97F NEW HAVEN CLEAR 51 46 83 N3 29.96F CHESTER FAIR 48 46 93 CALM 29.97F GROTON CLEAR 48 47 96 N5 29.96F WILLIMANTIC CLEAR 46 43 89 N3 29.98S IN RI CITY SKY/WX TMP DP RH WIND PRES REMARKS PROVIDENCE CLEAR 53 48 83 CALM 29.97S BLOCK ISLAND CLEAR 55 46 71 W3 29.95F WESTERLY CLEAR 47 45 93 CALM 29.97F IN MA CITY SKY/WX TMP DP RH WIND PRES REMARKS BOSTON CLEAR 57 46 66 CALM 29.95S WORCESTER CLEAR 51 43 74 W8 29.97S WESTFIELD CLEAR 45 43 93 CALM 29.97S PROVINCETOWN CLEAR 55 52 88 W6 29.95S NANTUCKET CLEAR 51 46 83 NW6 29.95F $$ ANZ330-335-338-340-345-350-353-355-180700- COASTAL MARINE OBSERVATIONS STATION/POSITION TIME SKY/WX TEMP WIND PRES VSBY WAVE AIR SEA DIR/SP/G HT/PER (UTC) (F) (DEG/KT/KT) (MB) (MI) (FT/S) NY HARB ENTRANCE 0600 67 70 240/ 6/ 8 1015.0 3/13 4S FIRE IS 0600 70 N/A 4/13 23SW MTP 0600 N/A 4/14 HUDSON CANYON 0600 67 74 30/ 10/ 12 1014.1 4/14 EXECUTION ROCKS 0600 64 71 280/ 8/ 8 N/A WESTERN LI SOUND 0600 65 280/ 8/ 8 N/A 0 CENTRAL LI SOUND 0500 67 71 240/ 10/ 12 N/A 1/ 2 EASTERN LI SOUND 0500 63 68 CALM / 2 N/A ROBBINS REEF 0500 62 290/ 6/ 7 1013.7 $$ >>>>>>>>>>>>>>>>>>>>>>>>>>>> KEY <<<<<<<<<<<<<<<<<<<<<<<<<<< > < > SKY/WX - SKY CONDITION/PRESENT WEATHER < > TMP - TEMPERATURE IN FAHRENHEIT < > DP - DEWPOINT IN FAHRENHEIT < > RH - RELATIVE HUMIDITY IN PERCENT < > WIND - DIRECTION AND SPEED IN MPH < > PRES - MEAN SEA LEVEL PRESSURE IN INCHES OF HG < > WCI - WIND CHILL INDEX < > VSB - VISIBILITY IN MILES < > HX - HEAT INDEX < > TC - TEMPERATURE IN CELSIUS < > VRB - VARIABLE WIND DIRECTION < > < >>>>>>>>>>>>>>>>>>>>>>>>>>>> KEY <<<<<<<<<<<<<<<<<<<<<<<<<<<

USA.gov is the U.S. government's official web portal to all federal, state and local government web resources and services.